sat.trackr.live / text

‹ back to catalog

STARLINK-3614

NORAD 51771 · 2022-017D

PAYLOAD ACTIVE UNKNOWN

§ Identity

Operator
Country
US
Launch date
2022-02-25
Launch site
AFWTR
Launch vehicle
Mass (kg)
RCS (m²)

Purposes: comms

External: N2YO · Heavens-Above · Gunter

§ Orbital elements

Epoch: 2026-05-24T23:37:49.884960Z

Period
95.44 min
Inclination
53.2143°
Eccentricity
0.0001034
Mean motion
15.08837880 rev/d
Perigee alt
539.0 km
Apogee alt
540.5 km
Semi-major
6,917.9 km
B*
2.1698e-5
RAAN
356.6088°
Arg perigee
109.2380°
Mean anomaly
250.8724°
Rev number
23,412

§ Raw data

STARLINK-36141 51771U 22017D   26144.98460515  .00000058  00000+0  21698-4 0  99902 51771  53.2143 356.6088 0001034 109.2380 250.8724 15.08837880234126

JSON: /api/v1/satellites/51771 · /tle

For live sub-satellite position, see the globe view (requires WebGL).

§ Visibility from observer

Set your observer location to see the next 7 days of passes ≥ 10°. The values pass through the URL so the page stays shareable.

No JS? Fill the form by hand. The geolocation button needs JavaScript.